When you browse on this site, cookies collect data to enhance your experience and personalize the content and advertising you see.
Visit our Privacy Policy to learn more. By continuing to use the site, you agree to this use of cookies and data.
  • în România
  • Lista ţărilor
  • Pe 7 zile
  • Temperatura apei
  • Hartă satelitară
  • Meteo pe hartă
  • Widget-uri
  • user-avatar
    Intrare

    Meteo pe oră la Matrah

    Astăzi, 20 Iulie, Sâmbătă

    Timp Temperatura Precipitaţii Vânt Presiune Umiditate
    00:00 +31°C° 0 mm 2 m/s 748 mmHg 74%
    01:00 +31°C° 0 mm 2 m/s 748 mmHg 74%
    02:00 +30°C° 0 mm 3 m/s 748 mmHg 78%
    03:00 +30°C° 0 mm 3 m/s 747 mmHg 82%
    04:00 +29°C° 0 mm 4 m/s 747 mmHg 86%
    05:00 +30°C° 0 mm 3 m/s 748 mmHg 84%
    06:00 +30°C° 0 mm 3 m/s 748 mmHg 81%
    07:00 +30°C° 0 mm 2 m/s 748 mmHg 78%
    08:00 +33°C° 0 mm 3 m/s 749 mmHg 70%
    09:00 +35°C° 0 mm 3 m/s 749 mmHg 62%
    10:00 +37°C° 0 mm 4 m/s 749 mmHg 54%
    11:00 +37°C° 0 mm 5 m/s 749 mmHg 52%
    12:00 +39°C° 0 mm 5 m/s 748 mmHg 51%
    13:00 +39°C° 0 mm 6 m/s 748 mmHg 50%
    14:00 +39°C° 0 mm 6 m/s 748 mmHg 49%
    15:00 +39°C° 0 mm 6 m/s 747 mmHg 47%
    16:00 +39°C° 0 mm 6 m/s 747 mmHg 46%
    17:00 +38°C° 0 mm 6 m/s 747 mmHg 51%
    18:00 +36°C° 0 mm 6 m/s 747 mmHg 56%
    19:00 +34°C° 0 mm 5 m/s 747 mmHg 61%
    20:00 +34°C° 0 mm 5 m/s 747 mmHg 60%
    21:00 +34°C° 0 mm 4 m/s 748 mmHg 60%
    22:00 +34°C° 0 mm 4 m/s 748 mmHg 59%
    23:00 +34°C° 0 mm 4 m/s 748 mmHg 62%

    Mâine, 21 Iulie, Duminică

    Timp Temperatura Precipitaţii Vânt Presiune Umiditate
    00:00 +33°C° 0 mm 4 m/s 748 mmHg 64%
    01:00 +33°C° 0 mm 4 m/s 748 mmHg 67%
    02:00 +32°C° 0 mm 5 m/s 748 mmHg 68%
    03:00 +32°C° 0 mm 5 m/s 748 mmHg 69%
    04:00 +32°C° 0 mm 5 m/s 747 mmHg 69%
    05:00 +32°C° 0 mm 4 m/s 748 mmHg 70%
    06:00 +32°C° 0 mm 4 m/s 748 mmHg 70%
    07:00 +33°C° 0 mm 3 m/s 749 mmHg 71%
    08:00 +34°C° 0 mm 3 m/s 749 mmHg 66%
    09:00 +35°C° 0 mm 4 m/s 749 mmHg 61%
    10:00 +36°C° 0 mm 4 m/s 749 mmHg 56%
    11:00 +37°C° 0 mm 5 m/s 748 mmHg 54%
    12:00 +38°C° 0 mm 6 m/s 748 mmHg 52%
    13:00 +39°C° 0 mm 6 m/s 748 mmHg 50%
    14:00 +39°C° 0 mm 6 m/s 748 mmHg 49%
    15:00 +39°C° 0 mm 6 m/s 747 mmHg 49%
    16:00 +39°C° 0 mm 6 m/s 747 mmHg 48%
    17:00 +38°C° 0 mm 6 m/s 747 mmHg 52%
    18:00 +36°C° 0 mm 6 m/s 747 mmHg 55%
    19:00 +34°C° 0 mm 6 m/s 747 mmHg 59%
    20:00 +34°C° 0 mm 6 m/s 748 mmHg 61%
    21:00 +34°C° 0 mm 5 m/s 748 mmHg 62%
    22:00 +33°C° 0 mm 5 m/s 748 mmHg 64%
    23:00 +33°C° 0 mm 4 m/s 748 mmHg 63%

    Poimâine, 22 Iulie, Luni

    Timp Temperatura Precipitaţii Vânt Presiune Umiditate
    00:00 +33°C° 0 mm 4 m/s 748 mmHg 62%
    01:00 +33°C° 0 mm 3 m/s 748 mmHg 61%
    02:00 +33°C° 0 mm 3 m/s 747 mmHg 64%
    03:00 +31°C° 0 mm 3 m/s 747 mmHg 68%
    04:00 +31°C° 0 mm 3 m/s 747 mmHg 71%
    05:00 +31°C° 0 mm 3 m/s 747 mmHg 73%
    06:00 +31°C° 0 mm 2 m/s 748 mmHg 74%
    07:00 +31°C° 0 mm 2 m/s 748 mmHg 76%
    08:00 +33°C° 0 mm 3 m/s 748 mmHg 69%
    09:00 +35°C° 0 mm 3 m/s 748 mmHg 63%
    10:00 +36°C° 0 mm 3 m/s 748 mmHg 57%
    11:00 +37°C° 0 mm 4 m/s 748 mmHg 54%
    12:00 +37°C° 0 mm 5 m/s 747 mmHg 52%
    13:00 +39°C° 0 mm 5 m/s 747 mmHg 49%
    14:00 +39°C° 0 mm 5 m/s 746 mmHg 48%
    15:00 +39°C° 0 mm 5 m/s 746 mmHg 47%
    16:00 +39°C° 0 mm 5 m/s 745 mmHg 45%
    17:00 +37°C° 0 mm 5 m/s 746 mmHg 48%
    18:00 +36°C° 0 mm 5 m/s 746 mmHg 51%
    19:00 +35°C° 0 mm 5 m/s 746 mmHg 54%
    20:00 +35°C° 0 mm 5 m/s 746 mmHg 55%
    21:00 +35°C° 0 mm 5 m/s 746 mmHg 56%
    22:00 +35°C° 0 mm 5 m/s 747 mmHg 57%
    23:00 +34°C° 0 mm 4 m/s 746 mmHg 57%

    23 Iulie, Marţi

    Timp Temperatura Precipitaţii Vânt Presiune Umiditate
    00:00 +34°C° 0 mm 4 m/s 746 mmHg 58%
    01:00 +34°C° 0 mm 3 m/s 746 mmHg 59%
    02:00 +33°C° 0 mm 3 m/s 746 mmHg 61%
    03:00 +32°C° 0 mm 2 m/s 745 mmHg 64%
    04:00 +31°C° 0 mm 2 m/s 745 mmHg 67%
    05:00 +31°C° 0 mm 2 m/s 746 mmHg 69%
    06:00 +31°C° 0 mm 2 m/s 746 mmHg 70%
    07:00 +32°C° 0 mm 2 m/s 747 mmHg 72%
    08:00 +34°C° 0 mm 2 m/s 747 mmHg 65%
    09:00 +35°C° 0 mm 3 m/s 747 mmHg 58%
    10:00 +37°C° 0 mm 4 m/s 747 mmHg 51%
    11:00 +38°C° 0 mm 4 m/s 747 mmHg 48%
    12:00 +40°C° 0 mm 5 m/s 746 mmHg 44%
    13:00 +40°C° 0 mm 5 m/s 746 mmHg 41%
    14:00 +40°C° 0 mm 5 m/s 745 mmHg 41%
    15:00 +40°C° 0 mm 5 m/s 745 mmHg 41%
    16:00 +40°C° 0 mm 6 m/s 745 mmHg 41%
    17:00 +39°C° 0 mm 6 m/s 745 mmHg 45%
    18:00 +38°C° 0 mm 6 m/s 745 mmHg 49%
    19:00 +36°C° 0 mm 6 m/s 745 mmHg 53%
    20:00 +35°C° 0 mm 5 m/s 745 mmHg 55%
    21:00 +35°C° 0 mm 4 m/s 746 mmHg 56%
    22:00 +34°C° 0 mm 4 m/s 746 mmHg 58%
    23:00 +34°C° 0 mm 4 m/s 746 mmHg 58%

    24 Iulie, Miercuri

    Timp Temperatura Precipitaţii Vânt Presiune Umiditate
    00:00 +34°C° 0 mm 4 m/s 746 mmHg 59%
    01:00 +34°C° 0 mm 4 m/s 746 mmHg 60%
    02:00 +33°C° 0 mm 3 m/s 746 mmHg 62%
    03:00 +32°C° 0 mm 2 m/s 746 mmHg 64%
    04:00 +31°C° 0 mm 2 m/s 746 mmHg 65%
    05:00 +32°C° 0 mm 2 m/s 746 mmHg 65%
    06:00 +32°C° 0 mm 2 m/s 746 mmHg 65%
    07:00 +32°C° 0 mm 1 m/s 747 mmHg 65%
    08:00 +34°C° 0 mm 2 m/s 747 mmHg 61%
    09:00 +36°C° 0 mm 3 m/s 747 mmHg 57%
    10:00 +37°C° 0 mm 3 m/s 747 mmHg 53%
    11:00 +38°C° 0 mm 4 m/s 747 mmHg 50%
    12:00 +38°C° 0 mm 4 m/s 746 mmHg 48%
    13:00 +40°C° 0 mm 4 m/s 746 mmHg 45%
    14:00 +40°C° 0 mm 4 m/s 745 mmHg 45%
    15:00 +40°C° 0 mm 4 m/s 745 mmHg 45%
    16:00 +38°C° 0 mm 3 m/s 745 mmHg 45%
    17:00 +37°C° 0 mm 3 m/s 745 mmHg 47%
    18:00 +36°C° 0 mm 2 m/s 745 mmHg 50%
    19:00 +34°C° 0 mm 1 m/s 745 mmHg 53%
    20:00 +34°C° 0 mm 1 m/s 746 mmHg 53%
    21:00 +34°C° 0 mm 1 m/s 746 mmHg 54%
    22:00 +34°C° 0 mm 1 m/s 747 mmHg 54%
    23:00 +33°C° 0 mm 1 m/s 746 mmHg 57%

    25 Iulie, Joi

    Timp Temperatura Precipitaţii Vânt Presiune Umiditate
    00:00 +34°C° 0 mm 2 m/s 746 mmHg 59%
    01:00 +32°C° 0 mm 2 m/s 746 mmHg 62%
    02:00 +32°C° 0 mm 2 m/s 746 mmHg 64%
    03:00 +31°C° 0 mm 2 m/s 746 mmHg 66%
    04:00 +31°C° 0 mm 2 m/s 746 mmHg 69%
    05:00 +31°C° 0 mm 2 m/s 746 mmHg 66%
    06:00 +32°C° 0 mm 2 m/s 747 mmHg 64%
    07:00 +32°C° 0 mm 1 m/s 747 mmHg 62%
    08:00 +35°C° 0 mm 2 m/s 747 mmHg 55%
    09:00 +37°C° 0 mm 2 m/s 747 mmHg 49%
    10:00 +39°C° 0 mm 2 m/s 747 mmHg 42%
    11:00 +39°C° 0 mm 3 m/s 747 mmHg 43%
    12:00 +40°C° 0 mm 3 m/s 746 mmHg 44%
    13:00 +41°C° 0 mm 4 m/s 746 mmHg 45%
    14:00 +40°C° 0 mm 3 m/s 745 mmHg 47%
    15:00 +39°C° 0 mm 3 m/s 745 mmHg 48%
    16:00 +39°C° 0 mm 2 m/s 745 mmHg 50%
    17:00 +38°C° 0 mm 2 m/s 745 mmHg 54%
    18:00 +37°C° 0 mm 2 m/s 745 mmHg 57%
    19:00 +35°C° 0 mm 2 m/s 745 mmHg 61%
    20:00 +36°C° 0 mm 2 m/s 745 mmHg 57%
    21:00 +35°C° 0 mm 1 m/s 745 mmHg 54%
    22:00 +36°C° 0 mm 1 m/s 746 mmHg 50%
    23:00 +35°C° 0 mm 1 m/s 745 mmHg 52%
    Arată mai mult